Sauk Centre, MN

6:44 AM CDT on September 21, 2019 (GMT -0500)
Sauk Centre

Weather History for KD39 - August, 2019

Change the Weather History Date:

Saturday, August 24, 2019

  Actual Average (KGHW) Record (KGHW)
Temperature  
Mean Temperature 64 °F -  
Max Temperature 75 °F 78 °F 94 °F (1949)
Min Temperature 55 °F 55 °F 45 °F (1956)
Growing Degree Days 14 (Base 50)    
Moisture  
Dew Point 56 °F    
Average Humidity 75    
Maximum Humidity 98    
Minimum Humidity 51    
Precipitation  
Precipitation 0.00 in - - ()
Sea Level Pressure  
Sea Level Pressure 30.16 in    
Wind  
Wind Speed 9 mph ()    
Max Wind Speed 21 mph    
Max Gust Speed 28 mph    
Visibility 10.0 miles    
Events      
Averages and records for this station are not official NWS values.
T = Trace of Precipitation, MM = Missing Value Source: Averaged Metar Reports

Daily Weather History Graph

Daily Weather History Graph

Search for Another Location

Airport or City:

Astronomy

Aug. 24, 2019 Rise Set
Actual Time 6:30 AM CDT 8:12 PM CDT
Civil Twilight 5:59 AM CDT 8:43 PM CDT
Nautical Twilight 5:20 AM CDT 9:22 PM CDT
Astronomical Twilight 4:39 AM CDT 10:03 PM CDT
Moon 12:18 AM CDT (8/24) 3:37 PM CDT (8/24)
Length of Visible Light 14h 44m
Length of Day
13h 41m
Last Quarter, 39% of the Moon is Illuminated
Aug 24
Last Quarter
Aug 30
New
Sep 5
First Quarter
Sep 13
Full
Sep 21
Last Quarter

Hourly Weather History & Observations

Time (CDT) Temp. Dew Point Humidity Pressure Visibility Wind Dir Wind Speed Gust Speed Precip Events Conditions
12:15 AM 60.4 °F 57.2 °F 89% 30.18 in 10.0 mi ESE 8.1 mph - N/A   Mostly Cloudy
12:16 AM 60.4 °F 57.2 °F 89% 30.18 in 10.0 mi ESE 8.1 mph - N/A   Mostly Cloudy
12:35 AM 60.3 °F 57.2 °F 90% 30.19 in 10.0 mi ESE 6.9 mph - N/A   Scattered Clouds
12:36 AM 60.3 °F 57.2 °F 90% 30.19 in 10.0 mi ESE 6.9 mph - N/A   Scattered Clouds
12:58 AM 59.4 °F 57.2 °F 93% 30.18 in 10.0 mi ESE 8.1 mph - N/A   Clear
1:18 AM 59.4 °F 57.2 °F 93% 30.19 in 10.0 mi ESE 6.9 mph - N/A   Clear
1:35 AM 59.9 °F 57.6 °F 92% 30.19 in 10.0 mi SE 6.9 mph - N/A   Clear
1:55 AM 59.9 °F 57.9 °F 93% 30.19 in 10.0 mi SE 6.9 mph - N/A   Clear
1:56 AM 59.9 °F 57.9 °F 93% 30.19 in 10.0 mi SE 6.9 mph - N/A   Clear
2:15 AM 59.9 °F 57.7 °F 93% 30.19 in 10.0 mi SE 6.9 mph - N/A   Clear
2:35 AM 59.4 °F 57.6 °F 94% 30.19 in 10.0 mi SE 6.9 mph - N/A   Clear
2:36 AM 59.4 °F 57.6 °F 94% 30.19 in 10.0 mi SE 6.9 mph - N/A   Clear
2:55 AM 58.6 °F 57.2 °F 95% 30.19 in 10.0 mi SE 5.8 mph - N/A   Clear
2:59 AM 58.6 °F 57.2 °F 95% 30.19 in 10.0 mi SE 4.6 mph - N/A   Clear
3:19 AM 58.5 °F 57.2 °F 96% 30.19 in 10.0 mi SE 5.8 mph - N/A   Clear
3:36 AM 58.3 °F 57.2 °F 96% 30.19 in 10.0 mi SE 4.6 mph - N/A   Clear
3:56 AM 57.4 °F 56.3 °F 96% 30.19 in 10.0 mi SE 4.6 mph - N/A   Clear
4:15 AM 57.4 °F 56.5 °F 97% 30.19 in 10.0 mi ESE 5.8 mph - N/A   Clear
4:16 AM 57.4 °F 56.5 °F 97% 30.19 in 10.0 mi ESE 4.6 mph - N/A   Clear
4:35 AM 56.8 °F 55.9 °F 97% 30.19 in 10.0 mi ESE 3.5 mph - N/A   Clear
4:40 AM 56.8 °F 55.9 °F 97% 30.19 in 10.0 mi ESE 3.5 mph - N/A   Clear
4:58 AM 56.8 °F 55.9 °F 97% 30.19 in 10.0 mi ESE 5.8 mph - N/A   Clear
5:15 AM 56.5 °F 55.8 °F 97% 30.20 in 10.0 mi ESE 4.6 mph - N/A   Clear
5:36 AM 55.9 °F 55.4 °F 98% 30.20 in 10.0 mi ESE 3.5 mph - N/A   Clear
5:56 AM 55.6 °F 54.7 °F 97% 30.21 in 10.0 mi SE 3.5 mph - N/A   Clear
6:15 AM 55.6 °F 54.9 °F 97% 30.21 in 10.0 mi SE 4.6 mph - N/A   Clear
6:16 AM 55.6 °F 54.9 °F 97% 30.21 in 10.0 mi SE 4.6 mph - N/A   Clear
6:38 AM 56.5 °F 55.6 °F 97% 30.21 in 10.0 mi SE 5.8 mph - N/A   Clear
6:56 AM 55.9 °F 54.9 °F 96% 30.22 in 10.0 mi SE 5.8 mph - N/A   Clear
7:15 AM 57.0 °F 55.9 °F 96% 30.22 in 10.0 mi SE 5.8 mph - N/A   Clear
7:36 AM 58.1 °F 56.3 °F 94% 30.22 in 10.0 mi SE 8.1 mph - N/A   Clear
7:55 AM 59.0 °F 57.0 °F 93% 30.21 in 10.0 mi SE 8.1 mph - N/A   Clear
7:56 AM 59.2 °F 57.0 °F 93% 30.21 in 10.0 mi SE 8.1 mph - N/A   Clear
8:15 AM 60.3 °F 57.2 °F 90% 30.22 in 10.0 mi SE 10.4 mph - N/A   Clear
8:16 AM 60.3 °F 57.2 °F 90% 30.22 in 10.0 mi SE 9.2 mph - N/A   Clear
8:39 AM 61.7 °F 57.4 °F 86% 30.21 in 10.0 mi SE 11.5 mph - N/A   Clear
8:56 AM 62.8 °F 57.7 °F 84% 30.21 in 10.0 mi SE 11.5 mph - N/A   Clear
9:16 AM 64.4 °F 57.7 °F 79% 30.21 in 10.0 mi SE 11.5 mph - N/A   Clear
9:35 AM 65.7 °F 57.9 °F 76% 30.20 in 10.0 mi SSE 16.1 mph - N/A   Clear
9:36 AM 65.7 °F 57.9 °F 76% 30.20 in 10.0 mi SSE 15.0 mph - N/A   Clear
9:55 AM 67.1 °F 57.6 °F 71% 30.20 in 10.0 mi SSE 17.3 mph 23.0 mph N/A   Clear
10:16 AM 68.4 °F 57.6 °F 68% 30.20 in 10.0 mi SSE 15.0 mph - N/A   Clear
10:35 AM 69.3 °F 57.7 °F 67% 30.20 in 10.0 mi SSE 18.4 mph 24.2 mph N/A   Clear
10:55 AM 70.5 °F 57.9 °F 64% 30.20 in 10.0 mi SE 16.1 mph 20.7 mph N/A   Clear
10:56 AM 70.5 °F 57.9 °F 64% 30.20 in 10.0 mi SE 17.3 mph 20.7 mph N/A   Clear
11:15 AM 71.2 °F 57.7 °F 62% 30.19 in 10.0 mi SE 19.6 mph 24.2 mph N/A   Scattered Clouds
11:16 AM 71.2 °F 57.6 °F 62% 30.19 in 10.0 mi SE 19.6 mph 24.2 mph N/A   Scattered Clouds
11:38 AM 71.8 °F 57.0 °F 60% 30.19 in 10.0 mi SSE 20.7 mph 27.6 mph N/A   Scattered Clouds
12:16 PM 71.8 °F 57.6 °F 61% 30.18 in 10.0 mi SE 16.1 mph 23.0 mph N/A   Scattered Clouds
12:35 PM 72.3 °F 57.6 °F 60% 30.17 in 10.0 mi SSE 16.1 mph 24.2 mph N/A   Mostly Cloudy
12:36 PM 72.3 °F 57.7 °F 60% 30.17 in 10.0 mi SE 15.0 mph 24.2 mph N/A   Mostly Cloudy
12:55 PM 73.0 °F 57.0 °F 57% 30.16 in 10.0 mi SSE 18.4 mph 26.5 mph N/A   Mostly Cloudy
1:18 PM 73.2 °F 56.3 °F 55% 30.16 in 10.0 mi SE 20.7 mph 25.3 mph N/A   Scattered Clouds
1:37 PM 72.9 °F 56.1 °F 56% 30.15 in 10.0 mi SSE 16.1 mph 23.0 mph N/A   Mostly Cloudy
1:55 PM 74.7 °F 57.2 °F 54% 30.14 in 10.0 mi SSE 17.3 mph 25.3 mph N/A   Mostly Cloudy
2:15 PM 74.3 °F 56.8 °F 54% 30.14 in 10.0 mi SSE 18.4 mph 25.3 mph N/A   Mostly Cloudy
2:16 PM 74.5 °F 56.8 °F 54% 30.14 in 10.0 mi SSE 18.4 mph 25.3 mph N/A   Mostly Cloudy
2:35 PM 72.0 °F 56.1 °F 57% 30.14 in 10.0 mi SE 15.0 mph 25.3 mph N/A   Mostly Cloudy
2:39 PM 71.6 °F 56.1 °F 58% 30.14 in 10.0 mi SE 17.3 mph 25.3 mph N/A   Mostly Cloudy
2:57 PM 74.5 °F 56.5 °F 53% 30.13 in 10.0 mi SE 18.4 mph - N/A   Mostly Cloudy
3:15 PM 71.4 °F 55.2 °F 57% 30.13 in 10.0 mi SE 18.4 mph - N/A   Mostly Cloudy
3:35 PM 74.8 °F 56.3 °F 52% 30.12 in 10.0 mi SE 17.3 mph 23.0 mph N/A   Mostly Cloudy
3:36 PM 74.5 °F 56.1 °F 53% 30.12 in 10.0 mi SE 17.3 mph 23.0 mph N/A   Mostly Cloudy
3:55 PM 74.3 °F 55.6 °F 52% 30.12 in 10.0 mi SE 11.5 mph - N/A   Mostly Cloudy
3:56 PM 74.3 °F 55.8 °F 52% 30.12 in 10.0 mi SE 12.7 mph - N/A   Mostly Cloudy
4:18 PM 73.6 °F 54.7 °F 51% 30.13 in 10.0 mi SE 17.3 mph 21.9 mph N/A   Mostly Cloudy
4:37 PM 73.6 °F 56.3 °F 55% 30.13 in 10.0 mi SSE 15.0 mph 19.6 mph N/A   Mostly Cloudy
4:56 PM 71.4 °F 55.6 °F 57% 30.12 in 10.0 mi SSE 13.8 mph 21.9 mph N/A   Overcast
5:15 PM 71.1 °F 55.4 °F 58% 30.13 in 10.0 mi SSE 13.8 mph 21.9 mph N/A   Overcast
5:16 PM 71.1 °F 55.2 °F 57% 30.13 in 10.0 mi SE 15.0 mph 21.9 mph N/A   Overcast
5:35 PM 70.9 °F 55.2 °F 58% 30.13 in 10.0 mi SSE 16.1 mph - N/A   Overcast
5:39 PM 70.9 °F 55.2 °F 58% 30.13 in 10.0 mi SSE 12.7 mph - N/A   Overcast
5:58 PM 70.9 °F 55.6 °F 58% 30.13 in 10.0 mi SE 15.0 mph 19.6 mph N/A   Overcast
6:15 PM 70.5 °F 55.4 °F 59% 30.12 in 10.0 mi SSE 15.0 mph 19.6 mph N/A   Overcast
6:35 PM 69.4 °F 55.8 °F 62% 30.12 in 10.0 mi SE 11.5 mph - N/A   Overcast
6:36 PM 69.4 °F 55.6 °F 61% 30.12 in 10.0 mi SE 11.5 mph - N/A   Overcast
6:55 PM 68.9 °F 55.9 °F 63% 30.11 in 10.0 mi SE 12.7 mph 16.1 mph N/A   Overcast
6:56 PM 68.7 °F 55.8 °F 63% 30.11 in 10.0 mi SE 11.5 mph 16.1 mph N/A   Overcast
7:18 PM 68.0 °F 55.0 °F 63% 30.12 in 10.0 mi SE 11.5 mph - N/A   Overcast
7:36 PM 67.3 °F 54.7 °F 64% 30.11 in 10.0 mi SE 9.2 mph 17.3 mph N/A   Overcast
7:57 PM 66.4 °F 54.7 °F 66% 30.11 in 10.0 mi SE 10.4 mph - N/A   Overcast
8:15 PM 65.8 °F 54.7 °F 67% 30.11 in 10.0 mi SE 8.1 mph - N/A   Overcast
8:35 PM 65.3 °F 54.5 °F 68% 30.11 in 10.0 mi SE 8.1 mph - N/A   Overcast
8:38 PM 65.3 °F 54.5 °F 68% 30.11 in 10.0 mi SE 8.1 mph - N/A   Overcast
8:55 PM 64.8 °F 54.5 °F 69% 30.11 in 10.0 mi SE 6.9 mph - N/A   Overcast
8:58 PM 64.8 °F 54.5 °F 69% 30.11 in 10.0 mi SE 6.9 mph - N/A   Overcast
9:15 PM 64.6 °F 54.3 °F 69% 30.11 in 10.0 mi ESE 6.9 mph - N/A   Overcast
9:16 PM 64.6 °F 54.3 °F 69% 30.11 in 10.0 mi ESE 6.9 mph - N/A   Overcast
9:35 PM 63.9 °F 54.5 °F 72% 30.10 in 10.0 mi ESE 9.2 mph - N/A   Overcast
9:36 PM 63.9 °F 54.7 °F 72% 30.10 in 10.0 mi ESE 8.1 mph - N/A   Overcast
9:55 PM 63.0 °F 55.2 °F 76% 30.10 in 10.0 mi ESE 6.9 mph - N/A   Overcast
9:59 PM 63.0 °F 55.4 °F 76% 30.10 in 10.0 mi ESE 6.9 mph - N/A   Overcast
10:17 PM 63.5 °F 54.7 °F 73% 30.09 in 10.0 mi SE 8.1 mph - N/A   Overcast
10:35 PM 63.1 °F 54.5 °F 73% 30.09 in 10.0 mi SE 6.9 mph - N/A   Overcast
10:55 PM 62.4 °F 54.0 °F 74% 30.09 in 10.0 mi ESE 5.8 mph - N/A   Mostly Cloudy
10:56 PM 62.2 °F 54.0 °F 74% 30.09 in 10.0 mi ESE 5.8 mph - N/A   Mostly Cloudy
11:15 PM 60.8 °F 53.8 °F 78% 30.08 in 10.0 mi SE 9.2 mph - N/A   Scattered Clouds
11:16 PM 60.8 °F 53.8 °F 78% 30.08 in 10.0 mi SE 8.1 mph - N/A   Scattered Clouds
11:38 PM 60.8 °F 54.0 °F 78% 30.08 in 10.0 mi SE 6.9 mph - N/A   Overcast
11:57 PM 61.7 °F 54.1 °F 76% 30.07 in 10.0 mi SE 8.1 mph - N/A   Overcast